Location: Pasadena, ca
(34.1243°N, 118.1037°W)
Time: 08:46:13
(UTC-08:00)

OTV 5 (USA 277) - Pass Details

Date: 07 October 2017
Orbit: 404 x 417 km, 43.0° (Epoch: 07 September)

Event Time Altitude Azimuth Distance (km) Brightness Sun altitude
Rises 20:44:00 0° 251° (WSW) 2,345 ? -28.8°
Reaches altitude 10° 20:46:09 10° 256° (WSW) 1,484 ? -29.3°
Enters shadow 20:46:45 14° 258° (WSW) 1,247 ? -29.4°
